Regional Weather Roundup
Issued by NWS

Home | Current Version | Previous Version | Graphics & Text | Print | Product List | Glossary On
Versions: 1 2 3 4 5 6 7 8 9 10 11 12 13 14 15 16 17 18 19 20 21 22 23 24 25 26 27 28 29 30 31 32 33 34 35 36 37 38 39 40 41 42 43 44 45 46 47 48 49 50
000
ASUS43 KLMK 250302
RWRKY
KENTUCKY REGIONAL WEATHER ROUNDUP
NATIONAL WEATHER SERVICE LOUISVILLE KY
1100 PM EDT THU JUL 24 2014

NOTE "FAIR" INDICATES FEW OR NO CLOUDS BELOW 12,000 FEET
WITH NO SIGNIFICANT WEATHER AND/OR OBSTRUCTIONS TO VISIBILITY.

KYZ001>023-026-027-061>063-070>075-250400-
WESTERN AND SOUTH CENTRAL KENTUCKY

CITY           SKY/WX    TMP DP  RH WIND       PRES   REMARKS
PADUCAH        CLEAR     66  60  81 CALM      30.06R
HENDERSON      CLEAR     63  55  77 CALM      30.05S
OWENSBORO      CLEAR     71  57  61 NE6       30.06R
HOPKINSVILLE   CLEAR     66  57  71 N6        30.05R
BOWLING GREEN  CLEAR     68  55  63 NE3       30.04R
GLASGOW        CLEAR     67  53  61 N3        30.04F
$$

KYZ024-025-028>034-038-045-046-053-250400-
NORTH CENTRAL KENTUCKY

CITY           SKY/WX    TMP DP  RH WIND       PRES   REMARKS
LOUISVILLE/SDF CLEAR     71  54  54 N7        30.06R
LOUISVILLE/LOU CLEAR     70  55  59 NE5       30.07R
FORT KNOX      CLEAR     66  55  67 N5        30.05S
$$

KYZ035>037-039>044-047>052-055>060-089>105-250400-
NORTHEAST KENTUCKY

CITY           SKY/WX    TMP DP  RH WIND       PRES   REMARKS
LEXINGTON      MOCLDY    67  55  65 N3        30.08R
COVINGTON      MOCLDY    69  53  56 N8        30.09R
FRANKFORT      CLOUDY    69  57  65 VRB5      30.07R
$$

KYZ054-064>069-076>088-106>120-250400-
SOUTHEAST KENTUCKY

CITY           SKY/WX    TMP DP  RH WIND       PRES   REMARKS
JACKSON        CLEAR     64  61  90 CALM      30.07R FOG
LONDON         CLEAR     63  60  90 CALM      30.07R
SOMERSET       NOT AVBL
MIDDLESBORO    CLEAR     62  61  97 CALM      30.07R
MONTICELLO     CLEAR     61  60  96 CALM      30.08R FOG
$$




USA.gov is the U.S. government's official web portal to all federal, state and local government web resources and services.